| time (UTC) | temp F | wind direction | speed MPH | gust MPH | rain 1hr in | rain 24hr in | rain mn in | humidity % | barometer mb |
| 20260508220004 | 55 | 66 | 0.0 | 1.0 | 0.00 | 0.00 | 0.00 | 91 | 1021.8 |
| 20260508215504 | 55 | 66 | 0.0 | 1.0 | 0.00 | 0.00 | 0.00 | 91 | 1021.7 |
| 20260508214504 | 55 | 66 | 0.0 | 1.0 | 0.00 | 0.00 | 0.00 | 92 | 1022.0 |
| 20260508214004 | 55 | 66 | 0.0 | 1.0 | 0.00 | 0.00 | 0.00 | 92 | 1021.7 |
| 20260508213003 | 56 | 66 | 0.0 | 2.0 | 0.00 | 0.00 | 0.00 | 93 | 1021.8 |
| 20260508212504 | 56 | 66 | 1.0 | 2.0 | 0.00 | 0.00 | 0.00 | 92 | 1021.8 |
| 20260508211504 | 56 | 68 | 1.0 | 2.0 | 0.00 | 0.00 | 0.00 | 92 | 1021.8 |
| 20260508211003 | 56 | 68 | 1.0 | 2.0 | 0.00 | 0.00 | 0.00 | 92 | 1021.8 |
| 20260508210004 | 56 | 66 | 1.0 | 2.0 | 0.00 | 0.00 | 0.00 | 92 | 1021.6 |
| 20260508205503 | 56 | 62 | 1.0 | 1.0 | 0.00 | 0.00 | 0.00 | 92 | 1021.5 |
| 20260508205004 | 56 | 62 | 1.0 | 3.0 | 0.00 | 0.00 | 0.00 | 91 | 1021.7 |
| 20260508204504 | 56 | 71 | 1.0 | 3.0 | 0.00 | 0.00 | 0.00 | 91 | 1021.6 |
| 20260508204004 | 57 | 61 | 1.0 | 2.0 | 0.00 | 0.00 | 0.00 | 91 | 1021.6 |
| 20260508203504 | 57 | 74 | 1.0 | 2.0 | 0.00 | 0.00 | 0.00 | 91 | 1021.5 |
| 20260508203004 | 57 | 43 | 1.0 | 2.0 | 0.00 | 0.00 | 0.00 | 91 | 1021.5 |
| 20260508202004 | 57 | 57 | 1.0 | 3.0 | 0.00 | 0.00 | 0.00 | 90 | 1021.4 |
| 20260508201003 | 57 | 63 | 1.0 | 2.0 | 0.00 | 0.00 | 0.00 | 90 | 1021.2 |
| 20260508200004 | 57 | 48 | 1.0 | 2.0 | 0.00 | 0.00 | 0.00 | 90 | 1021.1 |
| 20260508195004 | 57 | 73 | 1.0 | 2.0 | 0.00 | 0.00 | 0.00 | 89 | 1020.9 |
| 20260508194004 | 58 | 49 | 1.0 | 2.0 | 0.00 | 0.00 | 0.00 | 89 | 1020.6 |
| 20260508193504 | 58 | 37 | 0.0 | 3.0 | 0.00 | 0.00 | 0.00 | 88 | 1020.6 |
| 20260508193004 | 58 | 59 | 2.0 | 3.0 | 0.00 | 0.00 | 0.00 | 88 | 1020.7 |
| 20260508192003 | 58 | 50 | 1.0 | 2.0 | 0.00 | 0.00 | 0.00 | 87 | 1020.4 |
| 20260508191504 | 58 | 45 | 1.0 | 2.0 | 0.00 | 0.00 | 0.00 | 86 | 1020.4 |
| 20260508191004 | 59 | 48 | 1.0 | 3.0 | 0.00 | 0.00 | 0.00 | 86 | 1020.5 |
| 20260508190504 | 59 | 41 | 1.0 | 5.0 | 0.00 | 0.00 | 0.00 | 85 | 1020.5 |
| 20260508190004 | 59 | 46 | 2.0 | 3.0 | 0.00 | 0.00 | 0.00 | 84 | 1020.3 |
| 20260508185503 | 59 | 61 | 1.0 | 3.0 | 0.00 | 0.00 | 0.00 | 83 | 1020.4 |
| 20260508185004 | 59 | 47 | 1.0 | 3.0 | 0.00 | 0.00 | 0.00 | 84 | 1020.2 |
| 20260508184504 | 60 | 38 | 2.0 | 5.0 | 0.00 | 0.00 | 0.00 | 84 | 1019.9 |
| 20260508184004 | 60 | 40 | 2.0 | 5.0 | 0.00 | 0.00 | 0.00 | 83 | 1020.0 |
| 20260508183504 | 60 | 50 | 2.0 | 5.0 | 0.00 | 0.00 | 0.00 | 83 | 1020.0 |
| 20260508183004 | 60 | 31 | 2.0 | 3.0 | 0.00 | 0.00 | 0.00 | 83 | 1019.6 |
| 20260508182504 | 60 | 48 | 2.0 | 5.0 | 0.00 | 0.00 | 0.00 | 82 | 1019.7 |
| 20260508182004 | 60 | 67 | 2.0 | 5.0 | 0.00 | 0.00 | 0.00 | 81 | 1019.6 |
| 20260508181504 | 61 | 56 | 2.0 | 5.0 | 0.00 | 0.00 | 0.00 | 81 | 1019.6 |
| 20260508181004 | 61 | 50 | 1.0 | 3.0 | 0.00 | 0.00 | 0.00 | 81 | 1019.4 |
| 20260508180504 | 61 | 50 | 2.0 | 5.0 | 0.00 | 0.00 | 0.00 | 81 | 1019.6 |
| 20260508180004 | 61 | 59 | 0.0 | 2.0 | 0.00 | 0.00 | 0.00 | 80 | 1019.3 |
| 20260508175503 | 61 | 78 | 1.0 | 2.0 | 0.00 | 0.00 | 0.00 | 80 | 1019.4 |
| 20260508175004 | 61 | 74 | 1.0 | 5.0 | 0.00 | 0.00 | 0.00 | 80 | 1019.4 |
| 20260508174504 | 62 | 29 | 2.0 | 5.0 | 0.00 | 0.00 | 0.00 | 80 | 1019.3 |
| 20260508174005 | 61 | 65 | 1.0 | 3.0 | 0.00 | 0.00 | 0.00 | 79 | 1019.2 |
| 20260508173504 | 62 | 74 | 2.0 | 5.0 | 0.00 | 0.00 | 0.00 | 78 | 1019.3 |
| 20260508173004 | 62 | 45 | 2.0 | 6.0 | 0.00 | 0.00 | 0.00 | 78 | 1018.9 |
| 20260508172004 | 63 | 95 | 2.0 | 6.0 | 0.00 | 0.00 | 0.00 | 74 | 1018.9 |
| 20260508171504 | 63 | 67 | 1.0 | 6.0 | 0.00 | 0.01 | 0.00 | 69 | 1018.9 |
| 20260508171003 | 63 | 55 | 1.0 | 6.0 | 0.00 | 0.01 | 0.00 | 69 | 1018.9 |
| 20260508170504 | 63 | 48 | 3.0 | 7.0 | 0.00 | 0.02 | 0.00 | 68 | 1018.7 |
| 20260508170004 | 64 | 37 | 4.0 | 6.0 | 0.00 | 0.02 | 0.00 | 68 | 1018.7 |
| 20260508165004 | 64 | 48 | 4.0 | 7.0 | 0.00 | 0.04 | 0.00 | 68 | 1018.6 |
| 20260508164504 | 64 | 32 | 2.0 | 6.0 | 0.00 | 0.04 | 0.00 | 68 | 1018.5 |
| 20260508164004 | 64 | 48 | 3.0 | 8.0 | 0.00 | 0.05 | 0.00 | 69 | 1018.4 |
| 20260508163503 | 65 | 37 | 5.0 | 9.0 | 0.00 | 0.05 | 0.00 | 68 | 1018.6 |
| 20260508163004 | 65 | 53 | 4.0 | 7.0 | 0.00 | 0.06 | 0.00 | 68 | 1018.4 |
| 20260508161504 | 65 | 39 | 2.0 | 6.0 | 0.00 | 0.10 | 0.00 | 66 | 1018.5 |
| 20260508161004 | 67 | 59 | 2.0 | 5.0 | 0.00 | 0.12 | 0.00 | 65 | 1018.3 |
| 20260508160504 | 66 | 42 | 1.0 | 3.0 | 0.00 | 0.15 | 0.00 | 64 | 1018.3 |
| 20260508160004 | 65 | 24 | 1.0 | 6.0 | 0.00 | 0.19 | 0.00 | 65 | 1018.6 |
| 20260508155505 | 65 | 327 | 1.0 | 5.0 | 0.00 | 0.21 | 0.00 | 65 | 1018.5 |
| 20260508155004 | 64 | 11 | 1.0 | 3.0 | 0.00 | 0.24 | 0.00 | 65 | 1018.4 |
| 20260508154504 | 65 | 32 | 2.0 | 6.0 | 0.00 | 0.27 | 0.00 | 64 | 1018.2 |
| 20260508154004 | 65 | 43 | 5.0 | 7.0 | 0.00 | 0.28 | 0.00 | 64 | 1018.1 |
| 20260508153504 | 65 | 33 | 3.0 | 9.0 | 0.00 | 0.29 | 0.00 | 64 | 1018.0 |
| 20260508153004 | 66 | 26 | 3.0 | 9.0 | 0.00 | 0.30 | 0.00 | 63 | 1017.9 |
| 20260508152504 | 64 | 34 | 2.0 | 7.0 | 0.00 | 0.32 | 0.00 | 64 | 1018.3 |
| 20260508152004 | 65 | 14 | 2.0 | 6.0 | 0.00 | 0.33 | 0.00 | 64 | 1018.1 |
| 20260508151504 | 64 | 34 | 2.0 | 9.0 | 0.00 | 0.35 | 0.00 | 65 | 1018.3 |
| 20260508150504 | 65 | 34 | 5.0 | 8.0 | 0.00 | 0.35 | 0.00 | 62 | 1018.1 |
| 20260508145504 | 64 | 59 | 4.0 | 7.0 | 0.00 | 0.36 | 0.00 | 64 | 1018.5 |
| 20260508145004 | 64 | 45 | 5.0 | 7.0 | 0.00 | 0.37 | 0.00 | 64 | 1018.3 |
| 20260508144504 | 64 | 43 | 5.0 | 12.0 | 0.00 | 0.37 | 0.00 | 66 | 1018.5 |
| 20260508144004 | 65 | 56 | 5.0 | 8.0 | 0.00 | 0.38 | 0.00 | 64 | 1018.3 |
| 20260508143504 | 66 | 47 | 7.0 | 12.0 | 0.00 | 0.41 | 0.00 | 65 | 1018.4 |
| 20260508143003 | 68 | 38 | 3.0 | 8.0 | 0.00 | 0.42 | 0.00 | 58 | 1018.0 |
| 20260508142503 | 68 | 50 | 2.0 | 6.0 | 0.00 | 0.43 | 0.00 | 56 | 1018.0 |
| 20260508141504 | 66 | 282 | 1.0 | 8.0 | 0.00 | 0.43 | 0.00 | 57 | 1018.5 |
| 20260508141004 | 66 | 50 | 5.0 | 9.0 | 0.00 | 0.43 | 0.00 | 58 | 1018.6 |
| 20260508140504 | 67 | 38 | 3.0 | 7.0 | 0.00 | 0.43 | 0.00 | 58 | 1018.6 |
| 20260508140004 | 67 | 40 | 2.0 | 6.0 | 0.00 | 0.44 | 0.00 | 56 | 1018.7 |
| 20260508135504 | 67 | 48 | 2.0 | 5.0 | 0.00 | 0.44 | 0.00 | 56 | 1018.9 |
| 20260508134504 | 65 | 75 | 2.0 | 7.0 | 0.00 | 0.44 | 0.00 | 61 | 1019.0 |
| 20260508134003 | 64 | 46 | 2.0 | 7.0 | 0.00 | 0.44 | 0.00 | 63 | 1019.4 |
| 20260508133504 | 64 | 37 | 3.0 | 7.0 | 0.00 | 0.44 | 0.00 | 64 | 1019.4 |
| 20260508133004 | 65 | 44 | 2.0 | 6.0 | 0.00 | 0.44 | 0.00 | 61 | 1019.3 |
| 20260508132504 | 66 | 32 | 2.0 | 5.0 | 0.00 | 0.44 | 0.00 | 55 | 1019.4 |
| 20260508132003 | 66 | 80 | 2.0 | 5.0 | 0.00 | 0.44 | 0.00 | 55 | 1019.3 |
| 20260508131503 | 66 | 44 | 2.0 | 3.0 | 0.00 | 0.44 | 0.00 | 57 | 1019.2 |
| 20260508131004 | 65 | 44 | 2.0 | 7.0 | 0.00 | 0.44 | 0.00 | 58 | 1019.5 |
| 20260508130504 | 65 | 26 | 3.0 | 5.0 | 0.00 | 0.44 | 0.00 | 58 | 1019.5 |
| 20260508125004 | 64 | 265 | 1.0 | 2.0 | 0.00 | 0.44 | 0.00 | 60 | 1020.0 |
| 20260508124504 | 64 | 40 | 2.0 | 8.0 | 0.00 | 0.44 | 0.00 | 61 | 1020.0 |
| 20260508124004 | 65 | 21 | 3.0 | 7.0 | 0.00 | 0.44 | 0.00 | 60 | 1019.8 |
| 20260508123503 | 64 | 308 | 1.0 | 5.0 | 0.00 | 0.44 | 0.00 | 61 | 1020.0 |
| 20260508123004 | 64 | 40 | 1.0 | 5.0 | 0.00 | 0.44 | 0.00 | 61 | 1019.7 |
| 20260508122504 | 63 | 49 | 1.0 | 6.0 | 0.00 | 0.44 | 0.00 | 63 | 1020.0 |
| 20260508122004 | 64 | 30 | 2.0 | 5.0 | 0.00 | 0.44 | 0.00 | 61 | 1020.1 |
| 20260508121503 | 63 | 356 | 1.0 | 3.0 | 0.00 | 0.44 | 0.00 | 62 | 1020.2 |
| 20260508121004 | 62 | 83 | 1.0 | 5.0 | 0.00 | 0.44 | 0.00 | 61 | 1020.2 |
| 20260508120504 | 63 | 224 | 3.0 | 7.0 | 0.00 | 0.44 | 0.00 | 60 | 1020.3 |
| 20260508120004 | 63 | 131 | 1.0 | 5.0 | 0.00 | 0.44 | 0.00 | 64 | 1020.4 |
| 20260508115503 | 62 | 248 | 3.0 | 5.0 | 0.00 | 0.44 | 0.00 | 64 | 1020.3 |
| 20260508115004 | 62 | 241 | 2.0 | 6.0 | 0.00 | 0.44 | 0.00 | 64 | 1020.5 |
| 20260508114504 | 63 | 226 | 2.0 | 5.0 | 0.00 | 0.44 | 0.00 | 66 | 1020.3 |
| 20260508114004 | 62 | 121 | 1.0 | 3.0 | 0.00 | 0.44 | 0.00 | 67 | 1020.6 |
| 20260508113504 | 63 | 209 | 3.0 | 7.0 | 0.00 | 0.44 | 0.00 | 68 | 1020.6 |
| 20260508113004 | 62 | 38 | 3.0 | 7.0 | 0.00 | 0.44 | 0.00 | 68 | 1020.7 |
| 20260508112504 | 62 | 43 | 1.0 | 5.0 | 0.00 | 0.44 | 0.00 | 68 | 1020.6 |
| 20260508111504 | 61 | 47 | 2.0 | 5.0 | 0.00 | 0.44 | 0.00 | 70 | 1020.8 |
| 20260508111004 | 61 | 28 | 1.0 | 2.0 | 0.00 | 0.44 | 0.00 | 70 | 1021.0 |
| 20260508110504 | 60 | 225 | 1.0 | 2.0 | 0.00 | 0.44 | 0.00 | 72 | 1021.4 |
| 20260508110004 | 59 | 53 | 2.0 | 3.0 | 0.00 | 0.44 | 0.00 | 72 | 1021.4 |
| 20260508105504 | 60 | 104 | 1.0 | 2.0 | 0.00 | 0.44 | 0.00 | 74 | 1021.5 |
| 20260508105004 | 59 | 229 | 2.0 | 3.0 | 0.00 | 0.44 | 0.00 | 75 | 1021.4 |
| 20260508104504 | 59 | 254 | 1.0 | 5.0 | 0.00 | 0.44 | 0.00 | 76 | 1021.6 |
| 20260508104004 | 58 | 41 | 2.0 | 7.0 | 0.00 | 0.44 | 0.00 | 77 | 1021.0 |
| 20260508103503 | 59 | 48 | 2.0 | 5.0 | 0.00 | 0.44 | 0.00 | 76 | 1021.1 |
| 20260508103004 | 58 | 39 | 2.0 | 7.0 | 0.00 | 0.44 | 0.00 | 78 | 1020.9 |
| 20260508102504 | 58 | 43 | 2.0 | 5.0 | 0.00 | 0.44 | 0.00 | 81 | 1021.0 |
| 20260508102004 | 57 | 47 | 2.0 | 5.0 | 0.00 | 0.44 | 0.00 | 82 | 1021.2 |
| 20260508101504 | 56 | 16 | 1.0 | 3.0 | 0.00 | 0.44 | 0.00 | 82 | 1021.5 |
| 20260508101004 | 56 | 62 | 2.0 | 5.0 | 0.00 | 0.44 | 0.00 | 82 | 1021.6 |
| 20260508100503 | 57 | 56 | 1.0 | 2.0 | 0.00 | 0.44 | 0.00 | 82 | 1021.5 |
| 20260508095004 | 56 | 68 | 1.0 | 2.0 | 0.00 | 0.44 | 0.00 | 81 | 1022.1 |
| 20260508094504 | 57 | 214 | 0.0 | 0.0 | 0.00 | 0.44 | 0.00 | 81 | 1022.1 |
| 20260508094003 | 56 | 214 | 0.0 | 0.0 | 0.00 | 0.44 | 0.00 | 81 | 1022.1 |
| 20260508093504 | 56 | 214 | 0.0 | 2.0 | 0.00 | 0.44 | 0.00 | 81 | 1022.2 |
| 20260508093004 | 56 | 47 | 0.0 | 1.0 | 0.00 | 0.44 | 0.00 | 81 | 1022.2 |
| 20260508092503 | 56 | 47 | 1.0 | 2.0 | 0.00 | 0.44 | 0.00 | 82 | 1022.1 |
| 20260508092004 | 56 | 40 | 1.0 | 5.0 | 0.00 | 0.44 | 0.00 | 82 | 1022.0 |
| 20260508091504 | 56 | 28 | 1.0 | 2.0 | 0.00 | 0.44 | 0.00 | 82 | 1022.1 |
| 20260508091004 | 56 | 43 | 2.0 | 5.0 | 0.00 | 0.44 | 0.00 | 82 | 1021.7 |
| 20260508090504 | 57 | 69 | 2.0 | 5.0 | 0.00 | 0.44 | 0.00 | 81 | 1021.6 |
| 20260508090005 | 57 | 63 | 1.0 | 3.0 | 0.00 | 0.44 | 0.00 | 80 | 1021.6 |
| 20260508085504 | 57 | 58 | 1.0 | 2.0 | 0.00 | 0.44 | 0.00 | 80 | 1021.8 |
| 20260508085004 | 57 | 57 | 0.0 | 5.0 | 0.00 | 0.44 | 0.00 | 81 | 1021.6 |
| 20260508084504 | 57 | 55 | 3.0 | 6.0 | 0.00 | 0.44 | 0.00 | 80 | 1021.3 |
| 20260508084004 | 57 | 68 | 1.0 | 3.0 | 0.00 | 0.44 | 0.00 | 80 | 1021.3 |
| 20260508083004 | 57 | 233 | 0.0 | 1.0 | 0.00 | 0.44 | 0.00 | 79 | 1021.7 |
| 20260508082504 | 56 | 234 | 1.0 | 2.0 | 0.00 | 0.44 | 0.00 | 81 | 1021.9 |
| 20260508082004 | 55 | 202 | 1.0 | 2.0 | 0.00 | 0.44 | 0.00 | 82 | 1022.0 |
| 20260508081504 | 55 | 225 | 1.0 | 2.0 | 0.00 | 0.44 | 0.00 | 83 | 1021.8 |
| 20260508081004 | 55 | 230 | 0.0 | 1.0 | 0.00 | 0.44 | 0.00 | 84 | 1021.8 |
| 20260508080504 | 55 | 233 | 1.0 | 2.0 | 0.00 | 0.44 | 0.00 | 84 | 1021.5 |
| 20260508080004 | 55 | 214 | 0.0 | 1.0 | 0.00 | 0.44 | 0.00 | 85 | 1021.5 |
| 20260508075504 | 55 | 224 | 1.0 | 2.0 | 0.00 | 0.44 | 0.00 | 85 | 1021.9 |
| 20260508075004 | 54 | 221 | 2.0 | 3.0 | 0.00 | 0.44 | 0.00 | 85 | 1021.8 |
| 20260508074503 | 54 | 149 | 0.0 | 2.0 | 0.00 | 0.44 | 0.00 | 86 | 1021.8 |
| 20260508074003 | 54 | 203 | 1.0 | 3.0 | 0.00 | 0.44 | 0.00 | 86 | 1022.1 |
| 20260508073504 | 54 | 213 | 1.0 | 2.0 | 0.00 | 0.44 | 0.00 | 86 | 1021.9 |
| 20260508073004 | 54 | 222 | 1.0 | 2.0 | 0.00 | 0.44 | 0.00 | 86 | 1022.0 |
| 20260508072504 | 53 | 219 | 0.0 | 2.0 | 0.00 | 0.44 | 0.00 | 87 | 1021.9 |
| 20260508072004 | 53 | 209 | 1.0 | 2.0 | 0.00 | 0.44 | 0.00 | 87 | 1021.7 |
| 20260508071503 | 53 | 210 | 0.0 | 1.0 | 0.00 | 0.44 | 0.00 | 88 | 1021.8 |
| 20260508070504 | 52 | 209 | 0.0 | 1.0 | 0.00 | 0.44 | 0.00 | 89 | 1021.8 |
| 20260508070004 | 52 | 198 | 0.0 | 2.0 | 0.00 | 0.44 | 0.00 | 89 | 1022.0 |
| 20260508065004 | 51 | 211 | 1.0 | 2.0 | 0.00 | 0.44 | 0.00 | 91 | 1021.9 |
| 20260508064004 | 50 | 206 | 0.0 | 1.0 | 0.00 | 0.44 | 0.00 | 93 | 1021.9 |
| 20260508063004 | 49 | 222 | 0.0 | 1.0 | 0.00 | 0.44 | 0.00 | 92 | 1022.2 |
| 20260508062504 | 49 | 236 | 1.0 | 2.0 | 0.00 | 0.44 | 0.00 | 93 | 1022.1 |
| 20260508062004 | 49 | 260 | 0.0 | 0.0 | 0.00 | 0.44 | 0.00 | 93 | 1022.1 |
| 20260508061504 | 49 | 261 | 0.0 | 2.0 | 0.00 | 0.44 | 0.00 | 93 | 1022.1 |
| 20260508061004 | 49 | 243 | 1.0 | 1.0 | 0.00 | 0.44 | 0.00 | 93 | 1022.3 |
| 20260508060504 | 49 | 240 | 0.0 | 1.0 | 0.00 | 0.44 | 0.00 | 93 | 1022.2 |
| 20260508055504 | 48 | 225 | 0.0 | 1.0 | 0.00 | 0.44 | 0.00 | 94 | 1022.1 |
| 20260508055004 | 48 | 155 | 1.0 | 1.0 | 0.00 | 0.44 | 0.00 | 94 | 1022.0 |
| 20260508054504 | 48 | 153 | 0.0 | 1.0 | 0.00 | 0.44 | 0.00 | 94 | 1022.0 |
| 20260508054003 | 48 | 153 | 0.0 | 0.0 | 0.00 | 0.44 | 0.00 | 94 | 1022.0 |
| 20260508053504 | 48 | 153 | 0.0 | 0.0 | 0.00 | 0.44 | 0.00 | 94 | 1021.8 |
| 20260508053004 | 48 | 153 | 0.0 | 1.0 | 0.00 | 0.44 | 0.00 | 94 | 1021.8 |
| 20260508052504 | 48 | 146 | 1.0 | 1.0 | 0.00 | 0.44 | 0.00 | 94 | 1022.1 |
| 20260508052004 | 48 | 141 | 0.0 | 1.0 | 0.00 | 0.44 | 0.00 | 94 | 1021.5 |
| 20260508051505 | 48 | 183 | 0.0 | 0.0 | 0.00 | 0.44 | 0.00 | 94 | 1021.7 |
| 20260508050504 | 48 | 190 | 0.0 | 0.0 | 0.00 | 0.44 | 0.00 | 95 | 1021.5 |
| 20260508045503 | 48 | 187 | 1.0 | 2.0 | 0.00 | 0.44 | 0.00 | 94 | 1021.3 |
| 20260508045004 | 48 | 224 | 0.0 | 0.0 | 0.00 | 0.44 | 0.00 | 95 | 1021.1 |
| 20260508044504 | 48 | 225 | 0.0 | 1.0 | 0.00 | 0.44 | 0.00 | 95 | 1020.9 |
| 20260508044003 | 48 | 228 | 1.0 | 3.0 | 0.00 | 0.44 | 0.00 | 95 | 1021.1 |
| 20260508043504 | 48 | 235 | 1.0 | 3.0 | 0.00 | 0.44 | 0.00 | 95 | 1021.2 |
| 20260508043004 | 48 | 216 | 2.0 | 3.0 | 0.00 | 0.44 | 0.00 | 95 | 1021.1 |
| 20260508042503 | 48 | 223 | 0.0 | 1.0 | 0.00 | 0.44 | 0.00 | 95 | 1020.8 |
| 20260508042004 | 48 | 223 | 0.0 | 1.0 | 0.00 | 0.44 | 0.00 | 95 | 1020.9 |
| 20260508041504 | 48 | 222 | 0.0 | 0.0 | 0.00 | 0.44 | 0.00 | 95 | 1020.8 |
| 20260508040004 | 48 | 222 | 0.0 | 0.0 | 0.00 | 0.44 | 0.00 | 95 | 1021.3 |
| 20260508035504 | 48 | 223 | 0.0 | 1.0 | 0.00 | 0.44 | 0.00 | 95 | 1021.2 |
| 20260508035003 | 48 | 225 | 1.0 | 2.0 | 0.00 | 0.44 | 0.00 | 95 | 1021.1 |
| 20260508034504 | 48 | 299 | 0.0 | 1.0 | 0.00 | 0.44 | 0.00 | 95 | 1021.2 |
| 20260508033504 | 48 | 281 | 0.0 | 1.0 | 0.00 | 0.44 | 0.00 | 95 | 1021.0 |
| 20260508033004 | 48 | 242 | 0.0 | 1.0 | 0.00 | 0.44 | 0.00 | 95 | 1021.1 |
| 20260508032004 | 48 | 209 | 1.0 | 2.0 | 0.00 | 0.44 | 0.00 | 95 | 1021.1 |
| 20260508031504 | 48 | 217 | 0.0 | 1.0 | 0.00 | 0.44 | 0.00 | 95 | 1021.0 |
| 20260508031004 | 48 | 214 | 1.0 | 2.0 | 0.00 | 0.44 | 0.00 | 95 | 1021.0 |
| 20260508030504 | 49 | 289 | 0.0 | 1.0 | 0.00 | 0.44 | 0.00 | 95 | 1021.2 |
| 20260508030004 | 49 | 286 | 0.0 | 1.0 | 0.00 | 0.44 | 0.00 | 95 | 1021.0 |
| 20260508025504 | 49 | 263 | 0.0 | 0.0 | 0.00 | 0.44 | 0.00 | 95 | 1021.2 |
| 20260508025005 | 49 | 259 | 0.0 | 0.0 | 0.00 | 0.44 | 0.00 | 95 | 1021.0 |
| 20260508024503 | 49 | 259 | 0.0 | 1.0 | 0.00 | 0.44 | 0.00 | 94 | 1021.0 |
| 20260508024003 | 49 | 255 | 0.0 | 1.0 | 0.00 | 0.44 | 0.00 | 94 | 1021.0 |
| 20260508023504 | 49 | 187 | 0.0 | 2.0 | 0.00 | 0.44 | 0.00 | 94 | 1020.9 |
| 20260508023004 | 49 | 193 | 1.0 | 2.0 | 0.00 | 0.44 | 0.00 | 94 | 1021.0 |
| 20260508021504 | 50 | 232 | 0.0 | 1.0 | 0.00 | 0.44 | 0.00 | 94 | 1021.2 |
| 20260508021003 | 50 | 229 | 1.0 | 2.0 | 0.00 | 0.44 | 0.00 | 94 | 1021.2 |
| 20260508020504 | 50 | 175 | 1.0 | 1.0 | 0.00 | 0.44 | 0.00 | 94 | 1021.2 |
| 20260508015504 | 51 | 187 | 0.0 | 0.0 | 0.00 | 0.44 | 0.00 | 94 | 1021.2 |
| 20260508015003 | 51 | 188 | 0.0 | 1.0 | 0.00 | 0.44 | 0.00 | 94 | 1021.2 |
| 20260508014004 | 51 | 199 | 0.0 | 1.0 | 0.00 | 0.44 | 0.00 | 94 | 1021.3 |
| 20260508013004 | 51 | 207 | 0.0 | 2.0 | 0.00 | 0.44 | 0.00 | 93 | 1021.5 |
| 20260508012503 | 51 | 206 | 0.0 | 0.0 | 0.00 | 0.44 | 0.00 | 93 | 1021.5 |
| 20260508012004 | 51 | 206 | 0.0 | 0.0 | 0.00 | 0.44 | 0.00 | 93 | 1021.5 |
| 20260508011504 | 51 | 206 | 0.0 | 0.0 | 0.00 | 0.44 | 0.00 | 93 | 1021.5 |
| 20260508011004 | 51 | 205 | 0.0 | 2.0 | 0.00 | 0.44 | 0.00 | 93 | 1021.8 |
| 20260508010504 | 51 | 229 | 1.0 | 2.0 | 0.00 | 0.44 | 0.00 | 93 | 1021.8 |
| 20260508010004 | 51 | 21 | 0.0 | 0.0 | 0.00 | 0.44 | 0.00 | 93 | 1021.9 |
| 20260508004504 | 51 | 31 | 1.0 | 2.0 | 0.00 | 0.44 | 0.00 | 93 | 1022.0 |
| 20260508003503 | 51 | 15 | 0.0 | 1.0 | 0.00 | 0.44 | 0.00 | 93 | 1022.0 |
| 20260508003004 | 51 | 16 | 0.0 | 1.0 | 0.00 | 0.44 | 0.00 | 93 | 1022.1 |
| 20260508002504 | 51 | 15 | 1.0 | 1.0 | 0.00 | 0.44 | 0.00 | 93 | 1022.2 |
| 20260508002004 | 51 | 343 | 0.0 | 0.0 | 0.00 | 0.44 | 0.00 | 93 | 1022.1 |
| 20260508001504 | 51 | 343 | 1.0 | 2.0 | 0.00 | 0.44 | 0.00 | 93 | 1022.2 |
| 20260508001004 | 51 | 324 | 1.0 | 1.0 | 0.00 | 0.44 | 0.00 | 93 | 1022.1 |
| 20260507235504 | 51 | 317 | 1.0 | 1.0 | 0.00 | 0.44 | 0.00 | 93 | 1022.2 |
| 20260507235004 | 51 | 289 | 1.0 | 1.0 | 0.00 | 0.44 | 0.00 | 94 | 1022.5 |
| 20260507234504 | 51 | 235 | 0.0 | 0.0 | 0.00 | 0.44 | 0.00 | 94 | 1022.3 |
| 20260507234004 | 51 | 235 | 0.0 | 2.0 | 0.00 | 0.44 | 0.00 | 94 | 1022.4 |
| 20260507233004 | 51 | 184 | 0.0 | 0.0 | 0.00 | 0.44 | 0.00 | 94 | 1022.6 |
| 20260507232504 | 51 | 184 | 0.0 | 0.0 | 0.00 | 0.44 | 0.00 | 93 | 1022.6 |
| 20260507231503 | 51 | 203 | 0.0 | 1.0 | 0.00 | 0.44 | 0.00 | 94 | 1022.4 |
| 20260507231004 | 51 | 201 | 0.0 | 1.0 | 0.00 | 0.44 | 0.00 | 93 | 1022.2 |
| 20260507230504 | 51 | 228 | 0.0 | 3.0 | 0.00 | 0.44 | 0.00 | 93 | 1022.4 |
| 20260507230004 | 51 | 160 | 0.0 | 1.0 | 0.00 | 0.44 | 0.00 | 93 | 1022.5 |
| 20260507225503 | 51 | 150 | 1.0 | 2.0 | 0.00 | 0.44 | 0.00 | 93 | 1022.4 |
| 20260507225004 | 51 | 231 | 1.0 | 2.0 | 0.00 | 0.44 | 0.00 | 93 | 1022.3 |
| 20260507224504 | 51 | 252 | 1.0 | 2.0 | 0.00 | 0.44 | 0.00 | 93 | 1022.4 |
| 20260507223505 | 51 | 251 | 0.0 | 0.0 | 0.00 | 0.44 | 0.00 | 93 | 1022.4 |
| 20260507223004 | 52 | 249 | 0.0 | 0.0 | 0.00 | 0.44 | 0.00 | 93 | 1022.5 |
| 20260507221505 | 52 | 255 | 1.0 | 2.0 | 0.00 | 0.44 | 0.00 | 93 | 1022.2 |
| 20260507221004 | 52 | 239 | 1.0 | 2.0 | 0.00 | 0.44 | 0.00 | 93 | 1022.2 |